Location: Boiro
(42.6475°N, 8.8834°W)
Time: 04:06:43
(UTC+01:00)

X-37B - Pass Details

Date: 26 October 2021
Orbit: 330 x 341 km, 45.0° (Epoch: 20 November)

Event Time Altitude Azimuth Distance (km) Brightness Sun altitude
Rises 20:16:57 0° 286° (WNW) 2,127 5.6 -8.1°
Reaches altitude 10° 20:18:59 10° 283° (WNW) 1,286 4.5 -8.5°
Maximum altitude 20:21:49 58° 203° (SSW) 401 0.8 -9.0°
Drops below altitude 10° 20:24:39 10° 123° (ESE) 1,279 2.8 -9.5°
Enters shadow 20:24:51 - 122° (ESE) 1,359 2.9 -9.5°
